AFL5753 UWGG-ULLI

Flight info

Callsign AFL5753
Flight time N/A
Altitude 32000
Route LARNO2S LARNO T784 ROKUR P164 PINOK N50 GENPA GENPA1V
Aircraft MD88/M-SDFGIRWY/C

Departure

Time N/A
Airport Nizhny Novgorod / Strigino International Airport (UWGG)

Arrival

Time 2026-05-01 09:19
Airport Pulkovo Airport (ULLI)
Time Latitude Longitude Altitude Speed Heading
2026-05-01 08:44 57.83581 34.71001 32018 ft 400 kts 321°
2026-05-01 08:44 57.87829 34.61877 32019 ft 400 kts 321°
2026-05-01 08:45 57.93450 34.49696 32020 ft 401 kts 322°
2026-05-01 08:46 57.97230 34.41501 32019 ft 399 kts 322°
2026-05-01 08:46 58.02148 34.30784 32019 ft 397 kts 322°
2026-05-01 08:47 58.05748 34.22897 32021 ft 397 kts 322°
2026-05-01 08:47 58.09348 34.14960 32020 ft 399 kts 322°
2026-05-01 08:48 58.12925 34.06996 32027 ft 399 kts 322°
2026-05-01 08:48 58.16518 33.99010 32026 ft 397 kts 322°
2026-05-01 08:49 58.20101 33.91071 32034 ft 396 kts 322°
2026-05-01 08:49 58.23709 33.83094 32040 ft 404 kts 322°
2026-05-01 08:50 58.27375 33.74965 32035 ft 404 kts 321°
2026-05-01 08:50 58.30961 33.66907 32036 ft 394 kts 321°
2026-05-01 08:51 58.34491 33.58977 32038 ft 392 kts 321°
2026-05-01 08:51 58.38012 33.50950 32039 ft 396 kts 321°
2026-05-01 08:52 58.41557 33.42874 32036 ft 397 kts 321°
2026-05-01 08:52 58.45124 33.34811 32031 ft 397 kts 321°
2026-05-01 08:53 58.48655 33.26817 32029 ft 396 kts 321°
2026-05-01 08:53 58.52223 33.18724 32029 ft 395 kts 320°
2026-05-01 08:54 58.55709 33.10691 32030 ft 394 kts 320°
2026-05-01 08:54 58.59192 33.02576 32028 ft 394 kts 320°
2026-05-01 08:55 58.62687 32.94489 32028 ft 393 kts 320°
2026-05-01 08:55 58.66178 32.86425 32028 ft 392 kts 320°
2026-05-01 08:56 58.67930 32.82381 31824 ft 398 kts 320°
2026-05-01 08:56 58.69727 32.78244 31297 ft 406 kts 320°
2026-05-01 08:56 58.71525 32.74074 30718 ft 403 kts 320°
2026-05-01 08:56 58.73300 32.69925 30091 ft 399 kts 320°
2026-05-01 08:57 58.75051 32.65834 29464 ft 394 kts 320°
2026-05-01 08:57 58.76787 32.61777 28826 ft 391 kts 320°
2026-05-01 08:57 58.78511 32.57748 28184 ft 387 kts 320°
2026-05-01 08:57 58.80219 32.53760 27553 ft 384 kts 320°
2026-05-01 08:58 58.81906 32.49789 26929 ft 382 kts 320°
2026-05-01 08:58 58.83575 32.45825 26330 ft 378 kts 319°
2026-05-01 08:58 58.85223 32.41906 25709 ft 375 kts 319°
2026-05-01 08:58 58.86840 32.38060 25092 ft 372 kts 319°
2026-05-01 08:59 58.88486 32.34148 24471 ft 369 kts 319°
2026-05-01 08:59 58.90077 32.30375 23865 ft 365 kts 319°
2026-05-01 08:59 58.91680 32.26572 23254 ft 363 kts 318°
2026-05-01 08:59 58.93272 32.22793 22646 ft 361 kts 318°
2026-05-01 09:00 58.94854 32.19033 22042 ft 359 kts 318°
2026-05-01 09:00 58.96426 32.15290 21436 ft 357 kts 318°
2026-05-01 09:00 58.97987 32.11573 20842 ft 355 kts 317°
2026-05-01 09:00 58.99536 32.07881 20247 ft 353 kts 317°
2026-05-01 09:01 59.01084 32.04179 19640 ft 351 kts 316°
2026-05-01 09:01 59.02615 32.00518 19047 ft 348 kts 316°
2026-05-01 09:01 59.04135 31.96875 18486 ft 346 kts 316°
2026-05-01 09:01 59.05634 31.93269 17902 ft 342 kts 316°
2026-05-01 09:02 59.07129 31.89681 17326 ft 340 kts 316°
2026-05-01 09:02 59.08602 31.86150 16755 ft 337 kts 316°
2026-05-01 09:02 59.10088 31.82593 16169 ft 335 kts 315°
2026-05-01 09:02 59.11607 31.79198 15723 ft 327 kts 320°
2026-05-01 09:03 59.13159 31.76115 15586 ft 314 kts 321°
2026-05-01 09:03 59.14732 31.73133 15423 ft 320 kts 322°
2026-05-01 09:03 59.16336 31.70153 15234 ft 323 kts 322°
2026-05-01 09:03 59.17974 31.67118 15020 ft 324 kts 322°
2026-05-01 09:04 59.19598 31.64090 14792 ft 323 kts 321°
2026-05-01 09:04 59.21217 31.61056 14549 ft 324 kts 321°
2026-05-01 09:04 59.22839 31.58006 14311 ft 321 kts 321°
2026-05-01 09:04 59.24450 31.54976 14076 ft 323 kts 321°
2026-05-01 09:05 59.26061 31.51920 13843 ft 322 kts 320°
2026-05-01 09:05 59.27657 31.48881 13434 ft 323 kts 320°
2026-05-01 09:05 59.29278 31.45745 12648 ft 329 kts 319°
2026-05-01 09:05 59.30888 31.42629 11905 ft 322 kts 319°
2026-05-01 09:06 59.32451 31.39607 11298 ft 309 kts 319°
2026-05-01 09:06 59.33948 31.36686 10816 ft 299 kts 319°
2026-05-01 09:06 59.35384 31.33870 10544 ft 282 kts 319°
2026-05-01 09:06 59.36723 31.31252 10355 ft 262 kts 319°
2026-05-01 09:07 59.37978 31.28825 9964 ft 255 kts 319°
2026-05-01 09:07 59.39258 31.26375 9354 ft 258 kts 319°
2026-05-01 09:07 59.40541 31.23930 8822 ft 256 kts 319°
2026-05-01 09:07 59.41818 31.21498 8374 ft 254 kts 318°
2026-05-01 09:08 59.43087 31.19058 7961 ft 257 kts 317°
2026-05-01 09:08 59.44354 31.16579 7550 ft 258 kts 317°
2026-05-01 09:08 59.45621 31.14085 7197 ft 256 kts 317°
2026-05-01 09:08 59.46886 31.11617 6808 ft 256 kts 317°
2026-05-01 09:09 59.48154 31.09161 6404 ft 255 kts 317°
2026-05-01 09:09 59.49417 31.06704 5984 ft 256 kts 317°
2026-05-01 09:09 59.50669 31.04257 5575 ft 253 kts 317°
2026-05-01 09:09 59.51898 31.01859 5365 ft 245 kts 316°
2026-05-01 09:10 59.52667 31.00237 5144 ft 245 kts 313°
2026-05-01 09:10 59.53774 30.97689 4855 ft 242 kts 312°
2026-05-01 09:10 59.55213 30.94309 4606 ft 240 kts 311°
2026-05-01 09:10 59.56288 30.91784 4456 ft 242 kts 311°
2026-05-01 09:11 59.57373 30.89225 4319 ft 244 kts 311°
2026-05-01 09:11 59.58098 30.87531 4239 ft 245 kts 311°
2026-05-01 09:11 59.59204 30.84967 4091 ft 245 kts 311°
2026-05-01 09:11 59.60314 30.82409 3950 ft 246 kts 312°
2026-05-01 09:12 59.61435 30.79853 3810 ft 246 kts 312°
2026-05-01 09:12 59.62553 30.77307 3639 ft 245 kts 312°
2026-05-01 09:12 59.63669 30.74759 3477 ft 246 kts 311°
2026-05-01 09:12 59.64783 30.72208 3306 ft 244 kts 311°
2026-05-01 09:13 59.65870 30.69693 3159 ft 243 kts 311°
2026-05-01 09:13 59.67041 30.67306 3008 ft 241 kts 321°
2026-05-01 09:13 59.68388 30.65310 2867 ft 242 kts 326°
2026-05-01 09:13 59.69759 30.63431 2797 ft 231 kts 326°
2026-05-01 09:14 59.71021 30.61693 2737 ft 211 kts 326°
2026-05-01 09:14 59.72186 30.60105 2677 ft 197 kts 326°
2026-05-01 09:14 59.73298 30.58591 2523 ft 187 kts 326°
2026-05-01 09:15 59.75010 30.55122 2313 ft 174 kts 282°
2026-05-01 09:15 59.75314 30.52852 2170 ft 171 kts 290°
2026-05-01 09:15 59.75717 30.50641 2071 ft 169 kts 289°
2026-05-01 09:15 59.76055 30.48410 2044 ft 170 kts 287°
2026-05-01 09:16 59.76380 30.46148 2026 ft 169 kts 287°
2026-05-01 09:16 59.76699 30.43960 2001 ft 166 kts 287°
2026-05-01 09:16 59.77031 30.41718 1649 ft 169 kts 287°
2026-05-01 09:17 59.77652 30.37560 1096 ft 149 kts 287°
2026-05-01 09:17 59.77942 30.35646 845 ft 145 kts 287°
2026-05-01 09:17 59.78501 30.31854 476 ft 143 kts 287°
2026-05-01 09:18 59.78775 30.29985 296 ft 143 kts 286°
2026-05-01 09:18 59.79319 30.26355 88 ft 114 kts 287°
2026-05-01 09:19 59.79612 30.24393 87 ft 59 kts 287°
2026-05-01 09:19 59.79710 30.23732 82 ft 30 kts 286°
2026-05-01 09:19 59.79777 30.23357 82 ft 25 kts 298°
2026-05-01 09:20 59.79918 30.23036 80 ft 10 kts 333°
2026-05-01 09:20 59.79976 30.23085 79 ft 4 kts 87°
2026-05-01 09:21 59.79942 30.23354 84 ft 12 kts 107°
2026-05-01 09:21 59.79917 30.23515 80 ft 12 kts 107°
2026-05-01 09:21 59.79867 30.23851 87 ft 13 kts 106°
2026-05-01 09:22 59.79817 30.24194 81 ft 13 kts 106°
2026-05-01 09:22 59.79766 30.24540 84 ft 13 kts 106°
2026-05-01 09:23 59.79740 30.24718 86 ft 13 kts 106°
2026-05-01 09:23 59.79686 30.25080 82 ft 14 kts 106°
2026-05-01 09:24 59.79630 30.25455 83 ft 14 kts 106°
2026-05-01 09:24 59.79603 30.25645 85 ft 14 kts 106°
2026-05-01 09:24 59.79546 30.26030 85 ft 15 kts 106°
2026-05-01 09:25 59.79580 30.26280 87 ft 10 kts 18°
2026-05-01 09:25 59.79664 30.26304 82 ft 2 kts 327°
2026-05-01 09:26 59.79677 30.26258 82 ft 5 kts 289°
2026-05-01 09:26 59.79683 30.26227 82 ft 0 kts 289°